Location: Cambroso
(45.2833°N, 12.0850°E)
Time: 16:14:23
(UTC+00:00)

Cosmos 1833 Rocket - Pass Details

Date: 21 January 2021
Orbit: 833 x 839 km, 71.0° (Epoch: 26 February)

Event Time Altitude Azimuth Distance (km) Brightness Sun altitude
Rises 19:15:36 0° 332° (NNW) 3,391 6.2 -33.5°
Reaches altitude 10° 19:18:03 10° 331° (NNW) 2,453 5.5 -33.9°
Enters shadow 19:20:54 31° 325° (NW) 1,431 4.1 -34.4°
